Regional Weather Roundup
Issued by NWS

Home | Current Version | Previous Version | Graphics & Text | Print | Product List | Glossary On
Versions: 1 2 3 4 5 6 7 8 9 10 11 12 13 14 15 16 17 18 19 20 21 22 23 24 25 26 27 28 29 30 31 32 33 34 35 36 37 38 39 40 41 42 43 44 45 46 47 48 49 50
000
ASUS45 KCYS 270310
RWRWY

WYOMING REGIONAL WEATHER ROUNDUP
NATIONAL WEATHER SERVICE CHEYENNE WY
900 PM MDT TUE MAY 26 2015

NOTE:  "FAIR" INDICATES FEW OR NO CLOUDS BELOW 12,000 FEET
WITH NO SIGNIFICANT WEATHER AND/OR OBSTRUCTIONS TO VISIBILITY.

WYZ001-270400-
YELLOWSTONE NATIONAL PARK

CITY           SKY/WX    TMP DP  RH WIND       PRES   REMARKS
LK YELLOWSTONE   N/A     41  37  86 CALM      30.14R
W YELLOWSTONE  NOT AVBL

$$
WYZ002>013-054>058-071-098>099-270400-
NORTHERN WYOMING

CITY           SKY/WX    TMP DP  RH WIND       PRES   REMARKS
JACKSON        MOCLDY    46  43  87 CALM      30.08S
CODY           CLOUDY    52  46  82 NW9       30.00S
GREYBULL       MOCLDY    62  46  55 NW13      29.94R
WORLAND        FAIR      59  47  64 NW6       29.94R
SHERIDAN       CLOUDY    57  49  74 NW21      29.97R
BUFFALO        MOCLDY    58  47  66 NW3       30.01R
GILLETTE       FAIR      56  49  77 S10       29.97R
HULETT         FAIR      55  50  82 S3        29.99R
NEWCASTLE      LGT RAIN  57  45  62 SE10      30.00S

$$
WYZ014>020-022>026-101>103-270400-
CENTRAL WYOMING

CITY           SKY/WX    TMP DP  RH WIND       PRES   REMARKS
BIG PINEY      MOCLDY    48  44  86 E5        30.09R
PINEDALE       CLOUDY    46  39  76 CALM      30.09S
DUBOIS         MOCLDY    46  36  66 NW13      30.06R
LANDER         MOCLDY    57  46  66 SW10      29.99
RIVERTON       MOCLDY    57  46  66 NW7       30.00R
CASPER         LGT RAIN  56  45  66 SW8       30.02R
DOUGLAS        MOCLDY    59  49  69 S9        29.98F

$$
WYZ021-027>030-104>119-270400-
SOUTHERN WYOMING

CITY           SKY/WX    TMP DP  RH WIND       PRES   REMARKS
EVANSTON       FAIR      47  43  86 W7        30.11R
KEMMERER       FAIR      45  43  93 W3        30.10S
FORT BRIDGER   CLOUDY    50  48  93 W8        30.13R
ROCK SPRINGS   LGT RAIN  50  44  80 W12       30.09R
DIXON          CLOUDY    51  42  71 S14G23    30.12R
RAWLINS        FAIR      51  42  71 W17G24    30.09R
SARATOGA       FAIR      50  45  81 MISG      30.10R
LARAMIE        FAIR      49  39  68 S10G23    30.10R
CHEYENNE       FAIR      53  45  74 S6        30.07S
TORRINGTON     RAIN      61  53  75 E10       29.99R
PINE BLUFFS    MOCLDY    55  50  82 S6        30.05R

$$



USA.gov is the U.S. government's official web portal to all federal, state and local government web resources and services.